Location: Fort Worth, Tx
(32.7431°N, 97.3695°W)
Time: 18:04:11
(UTC-04:00)

Transit 4A - Pass Details

Date: 01 March 2024
Orbit: 871 x 972 km, 66.8° (Epoch: 21 April)

Event Time Altitude Azimuth Distance (km) Brightness Sun altitude
Rises 12:02:24 0° 318° (NW) 3,465 10.5 43.6°
Reaches altitude 10° 12:05:20 10° 305° (NW) 2,519 9.9 43.9°
Maximum altitude 12:09:49 24° 254° (WSW) 1,740 9.5 44.5°
Drops below altitude 10° 12:14:19 10° 203° (SSW) 2,515 10.7 45.0°
Sets 12:17:16 0° 189° (S) 3,458 11.4 45.3°
